Погода Сангары

Погода Сангары : погода сейчас, прогноз погоды и архив. Всё, что Вы хотите узнать о погоде Сангары!

Хотите узнать прогноз погоды Сангары? Тогда Вам сюда: Погода Сангары

Поиск расширенной информации на нашем сайте:

Другие новости

Новости СМИ2

Главная страница сайта

Новости сайта

03.07.2017

Напоминаем, что на нашем специализированном сайте Метеоцентр.Азия вы можете получить высокодетализированные автоматические прогнозы погоды по пунктам России, СНГ и мира в авиационном формате (включающие направление и скорость ветра, видимость, явления погоды, количество и форму облачности, нижнюю и верхнюю границу облачности).

Рекомендуем: лесные жители белфакс

Погода Сангары - сегодня

Время (UTC), дата Ветер
(°,м/с) 
Видим.   Явления Облачность Т
(°С)
Тd
(°С)
f(%) Тe
(°С)
Pmin
(гПа)
dP
(гПа)
Po
(мм)
O2
(г/м3)
Тmin Tmax R s Состояние
почвы
06 17.02.18 170 (Ю) 20000 м  слаб. снег  9/0 средняя 
[Sc|Ac und]
-29.9 -32.4 79 -31  1021.5  0.1  756  344           
09 17.02.18 тихо ()   20000 м  слаб. снег  10/0 средняя 
[As op]
-29.6 -32 80 -30  1021.9  0.4  756  344           
15 17.02.18 280 (З) 10 км  слаб. снег  10/0 средняя, верхняя 
[Ac trans|Cs]
-31.1 -33.4 80 -32  1022.7  0.1  757  346           
18 17.02.18 080 (В) 10 км  слаб. снег  10/0 средняя, верхняя 
[Ac trans|Cs]
-34 -36.2 80 -35  1023.2  0.2  757  350           
21 17.02.18 090 (В) 10 км  {снег}  10/0 верхняя 
[Ci fib]
-32.7 -35.1 79 -34  1023.4  0.3  757  349           
03 18.02.18 тихо ()   20000 м    10/0 средняя, верхняя 
[Ac trans|Ci fib]
-29.8 -32.2 80 -30  1022.8  0.2  757  344           
06 18.02.18 тихо ()   20000 м    6/0 средняя, верхняя 
[Ac trans|Ci fib]
-28.2 -30.7 79 -28  1022.5  -0.3  757  342           
09 18.02.18 тихо ()   20000 м    4/0 верхняя 
[Ci fib]
-32.6 -34.8 81 -33  1022.9  0.1  757  348           
12 18.02.18 тихо ()   10 км    ясно 
-35.4 -37.7 79 -35  1023.2  0.2  757  352    -28.2       
15 18.02.18 тихо ()   10 км    8/0 средняя 
[Ac trans]
-36.4 -38.8 78 -36  1022.7  -0.6  756  354           
18 18.02.18 тихо ()   10 км    ясно 
-38.4 -40.8 78 -38  1022.2  -0.6  756  357           
21 18.02.18 тихо ()   10 км    ясно 
-39.9 -42.2 79 -40  1021.8  -0.4  756  359           
00 19.02.18 тихо ()   20000 м    4/0 верхняя 
[Ci fib]
-40.1 -42.2 80 -40  1021.7  -0.2  756  359  -40.9      30  равномерный
сухой снег
100% 
03 19.02.18 тихо ()   20000 м    4/0 верхняя 
[Ci fib]
-36.1 -38.4 79 -36  1021.2  -0.2  755  353           
06 19.02.18 270 (З) 20000 м    1/0 верхняя 
[Ci fib]
-31 -33.4 79 -32  1020.5  -0.4  755  345           
09 19.02.18 300 (СЗ) 20000 м    ясно 
-34.1 -36.5 79 -35  1021  0.3  755  350           
12 19.02.18 тихо ()   10 км    ясно 
-37.4 -39.5 81 -37  1020.5  -0.6  755  355    -31       
15 19.02.18 тихо ()   10 км    ясно 
-37.6 -39.9 79 -38  1020.2  -0.3  755  355           
18 19.02.18 тихо ()   10 км    ясно 
-38 -40.3 79 -38  1019.4  -0.8  754  355           
21 19.02.18 тихо ()   10 км    ясно 
-39.3 -41.7 78 -39  1019  -0.5  754  357           
00 20.02.18 тихо ()   10 км    3/0 верхняя 
[Ci fib]
-41 -43.2 79 -41  1018.9  -0.3  753  359  -42.9      30  равномерный
сухой снег
100% 
03 20.02.18 тихо ()   10 км    10/0 верхняя 
[Ci fib]
-37.4 -39.5 81 -37  1018.3  -0.3  753  354           
06 20.02.18 300 (СЗ) 20000 м  слаб. снег  10/0 верхняя 
[Cs]
-33 -36 74 -34  1017.9  -0.2  753  347           
09 20.02.18 300 (СЗ) 20000 м  {снег}  3/0 верхняя 
[Ci fib]
-35.5 -37.7 80 -37  1018.8  0.8  754  351           
15 20.02.18 050 (СВ) 10 км    10/0 верхняя 
[Cs]
-35.9 -38.1 80 -37  1018.4  -0.5  753  352           
Время (UTC), дата Ветер
(°,м/с) 
Видим.   Явления Облачность Т
(°С)
Тd
(°С)
f(%) Тe
(°С)
Pmin
(гПа)
dP
(гПа)
Po
(мм)
O2
(г/м3)
Тmin Tmax R s Состояние
почвы

Для получения пояснительной информации подведите курсор к названию столбца.

ПОГОДА Сангары - архив

Всё, что Вы хотите узнать о погоде Сангары - удобно и подробно!

Выберите нужную дату (начиная с 1 января 2015* года) и нажмите кнопку "Найти".
Будут отображены архивные сводки погоды по пункту Сангары, начиная с указанной даты.


Отображать данные в формате CSV (для использования в таблицах Excel)


Внимание! Наш архив погоды предназначен исключительно для личного некоммерческого использования в познавательных целях. Если Вам необходимы официальные справки о состоянии погоды (для производственных, юридических, коммерческих и т.п. целей), обращайтесь в органы Росгидромета.

*Примечание: данная дата относится к архиву по метеостанциям СССР (Россия, СНГ, Балтия).
Архив по метеостанциям Зарубежной Европы и Азии (кроме Китая) хранится 10 дней, по другим регионам земного шара (Китай, Африка, Америка, Австралия, Океания) - 1 день.

Сангары - район местоположения метеостанции


Название, широта, долгота, высота метеостанции:
Сангары 64°ш. 127.5°д. 96 м над ур. моря [Российская Федерация]

Дополнительная информация

В oтличие oт бoльшинства пoгoдных сайтoв мы публикуем пoдрoбную метеoинфoрмацию в детальнoм прoфессиoнальнoм фoрмате.

Характеристики температуры и влажнoсти вoздуха измеряются на высoте 2 м в тени вдали oт зданий и деревьев.
Скoрoсть ветра измеряется на высoте 10 м (на урoвне рoста челoвека скoрoсть ветра ниже в 1.5-2 раза). Если метеoстанция нахoдится в гoрoде или в лесу, тo скoрoсть ветра занижена на 2-4 м/с пo сравнению с oткрытым местoм. Скoрoсть ветра над акватoриями крупных рек и oзёр, а также на вершинах хoлмoв на 2-5 м/с выше, чем в oбычных услoвиях.
Атмoсфернoе давление в разных тoчках местнoсти мoжет значительнo oтличаться oт давления на метеoстанции, в зависимoсти oт услoвий рельефа (при пoдъёме на 10 м давление пoнижается примернo на 1 мм рт.ст.).